Weather History for Khon Kaen, Thailand

Change the Weather History Date:

Saturday, February 16, 2013

  Actual Average Record
Temperature  
Mean Temperature 80 °F -  
Max Temperature 92 °F 93 °F - ()
Min Temperature 69 °F 70 °F - ()
Cooling Degree Days 16    
Growing Degree Days 30 (Base 50)    
Moisture  
Dew Point 66 °F    
Average Humidity 58    
Maximum Humidity 83    
Minimum Humidity 32    
Precipitation  
Precipitation 0.00 in 0.03 in - ()
Sea Level Pressure  
Sea Level Pressure 29.87 in    
Wind  
Wind Speed 5 mph ()    
Max Wind Speed 8 mph    
Max Gust Speed -    
Visibility 6.1 miles    
Events      
T = Trace of Precipitation, MM = Missing Value Source: Averaged Metar Reports

Daily Weather History Graph

Daily Weather History Graph

Search for Another Location

Airport:

Trip Planner

Search our weather history database for the weather conditions in past years. The results will help you decide how hot, cold, wet, or windy it might be!

Date:

Astronomy

Feb. 16, 2013 Rise Set
Actual Time 6:34 AM ICT 6:11 PM ICT
Civil Twilight 6:12 AM ICT 6:33 PM ICT
Nautical Twilight 5:46 AM ICT 6:59 PM ICT
Astronomical Twilight 5:21 AM ICT 7:24 PM ICT
Moon 10:29 AM ICT (2/16) 11:32 PM ICT (2/16)
Length of Visible Light 12h 21m
Length of Day
11h 37m
Waxing Crescent, 34% of the Moon is Illuminated
Feb 16
Waxing Crescent
Feb 18
First Quarter
Feb 26
Full
Mar 5
Last Quarter
Mar 12
New

Hourly Weather History & Observations

Time (ICT) Temp. Heat Index Dew Point Humidity Pressure Visibility Wind Dir Wind Speed Gust Speed Precip Events Conditions
1:00 AM 78 °F - 62 °F 49% 29.85 in 6 mi ENE 4.6 mph - -   Clear
4:00 AM 73.4 °F - 64.4 °F 73% 29.86 in - East 4.6 mph - N/A   Clear
5:00 AM 73.4 °F - 64.4 °F 73% 29.86 in - NE 5.8 mph - N/A   Clear
6:00 AM 69.8 °F - 64.4 °F 83% 29.90 in 6.2 mi NNW 3.5 mph - N/A   Partly Cloudy
7:00 AM 71 °F - 62 °F 64% 29.91 in 6 mi NNW 3.5 mph - -   Clear
7:00 AM 69.8 °F - 64.4 °F 83% 29.93 in - North 4.6 mph - N/A   Clear
8:00 AM 73.4 °F - 66.2 °F 78% 29.95 in - Variable 2.3 mph - N/A   Clear
9:00 AM 77.0 °F - 66.2 °F 69% 29.98 in - NE 8.1 mph - N/A   Clear
10:00 AM 80.6 °F 83.2 °F 68.0 °F 65% 29.99 in - NE 8.1 mph - N/A   Clear
11:00 AM 84.2 °F 87.3 °F 68.0 °F 58% 29.97 in - ENE 8.1 mph - N/A   Clear
12:00 PM 84.2 °F 87.3 °F 68.0 °F 58% 29.97 in - Variable 6.9 mph - N/A   Clear
1:00 PM 89 °F - 63 °F 32% 29.85 in 6 mi East 3.5 mph - -   Scattered Clouds
1:00 PM 87.8 °F 91.4 °F 68.0 °F 52% 29.88 in 6.2 mi Variable 3.5 mph - N/A   Partly Cloudy
2:00 PM 89.6 °F 92.2 °F 66.2 °F 46% 29.83 in 6.2 mi East 5.8 mph - N/A   Partly Cloudy
3:00 PM 91.4 °F 95.4 °F 68.0 °F 46% 29.80 in 6.2 mi East 6.9 mph - N/A   Partly Cloudy
4:00 PM 91.4 °F 95.4 °F 68.0 °F 46% 29.77 in 6.2 mi ENE 5.8 mph - N/A   Partly Cloudy
5:00 PM 91.4 °F 94.0 °F 66.2 °F 43% 29.77 in 6.2 mi NE 5.8 mph - N/A   Partly Cloudy
6:00 PM 89.6 °F 93.4 °F 68.0 °F 49% 29.77 in - NE 8.1 mph - N/A   Clear
7:00 PM 87 °F - 65 °F 38% 29.78 in 6 mi NE 4.6 mph - -   Clear
7:00 PM 87.8 °F 91.4 °F 68.0 °F 52% 29.80 in - ENE 5.8 mph - N/A   Clear
8:00 PM 84.2 °F 87.3 °F 68.0 °F 58% 29.83 in - ESE 3.5 mph - N/A   Clear